Location: Kalberh�ni
(46.4610°N, 7.2453°E)
Time: 02:41:37
(UTC+00:00)

COSMOS 2428 - Pass Details

Date: 20 June 2021
Orbit: 845 x 858 km, 70.9° (Epoch: 25 July)

Event Time Altitude Azimuth Distance (km) Brightness Sun altitude
Exits shadow 21:09:08 - 196° (SSW) 3,025 5.2 -12.9°
Reaches altitude 10° 21:10:34 10° 194° (SSW) 2,482 4.7 -13.1°
Maximum altitude 21:16:13 68° 113° (ESE) 921 2.7 -13.6°
Drops below altitude 10° 21:21:56 10° 31° (NNE) 2,502 5.5 -14.1°
Sets 21:24:24 0° 29° (NNE) 3,443 6.3 -14.3°
